User: anonymous   Login
Location: Palmerston North
(40.3500°S, 175.6170°E)
Time: 11:05:43
(UTC+13:00)
Language:

Atlas Centaur 2 - Orbit

View from above orbital plane
View from above orbital plane
View from above satellite
View from above satellite

Ground track
Ground track

The orbit data is extracted from the following two-line orbital elements,

1   694U 63047A   19287.85388224  .00000281  00000-0  20936-4 0  9991
2   694  30.3574 168.5144 0586173 205.7715 151.2538 14.02521487802075
Epoch (UTC): 14 October 2019 20:29:35
Eccentricity: 0.0586173
inclination: 30.3574°
perigee height: 459 km
apogee height: 1311 km
right ascension of ascending node: 168.5144°
argument of perigee: 205.7715°
revolutions per day: 14.02521487
mean anomaly at epoch: 151.2538°
orbit number at epoch: 80207

The dashed part of the orbit path shows where the satellite is in the earth's shadow,  

DLR